TimeEDT,TemperatureF,Dew PointF,Humidity,Sea Level PressureIn,VisibilityMPH,Wind Direction,Wind SpeedMPH,Gust SpeedMPH,PrecipitationIn,Events,Conditions,WindDirDegrees,DateUTC
12:53 AM,30.9,21.9,69,30.44,10.0,WNW,4.6,-,N/A,,Clear,290,2012-10-13 04:53:00
1:53 AM,30.9,21.9,69,30.44,10.0,West,3.5,-,N/A,,Clear,280,2012-10-13 05:53:00
2:53 AM,28.0,21.9,78,30.44,10.0,SE,3.5,-,N/A,,Clear,140,2012-10-13 06:53:00
3:53 AM,28.0,21.9,78,30.45,10.0,Calm,Calm,-,N/A,,Clear,0,2012-10-13 07:53:00
4:53 AM,27.0,21.9,81,30.46,10.0,Calm,Calm,-,N/A,,Clear,0,2012-10-13 08:53:00
5:53 AM,27.0,21.0,78,30.47,10.0,South,3.5,-,N/A,,Clear,180,2012-10-13 09:53:00
6:53 AM,28.0,19.9,72,30.47,10.0,SSW,3.5,-,N/A,,Clear,200,2012-10-13 10:53:00
7:53 AM,30.0,21.0,69,30.48,10.0,SW,4.6,-,N/A,,Clear,220,2012-10-13 11:53:00
8:53 AM,32.0,23.0,69,30.48,10.0,South,3.5,-,0.01,,Clear,190,2012-10-13 12:53:00
9:53 AM,36.0,21.9,57,30.50,10.0,SSW,5.8,-,N/A,,Clear,210,2012-10-13 13:53:00
10:53 AM,39.2,23.0,52,30.43,10.0,SW,6.9,-,N/A,,Clear,220,2012-10-13 14:53:00
11:53 AM,43.0,24.1,47,30.46,10.0,SSW,9.2,17.3,N/A,,Clear,200,2012-10-13 15:53:00
12:53 PM,45.0,21.9,40,30.41,10.0,Variable,4.6,-,N/A,,Clear,0,2012-10-13 16:53:00
1:53 PM,46.0,19.9,35,30.38,10.0,South,9.2,-,N/A,,Clear,170,2012-10-13 17:53:00
2:53 PM,46.0,23.0,40,30.35,10.0,South,6.9,-,N/A,,Clear,170,2012-10-13 18:53:00
3:53 PM,46.4,21.2,37,30.29,10.0,South,10.4,-,N/A,,Clear,190,2012-10-13 19:53:00
4:53 PM,46.9,23.0,39,30.30,10.0,SSE,9.2,-,N/A,,Mostly Cloudy,160,2012-10-13 20:53:00
5:53 PM,46.0,24.1,42,30.30,10.0,South,5.8,-,N/A,,Overcast,170,2012-10-13 21:53:00
6:53 PM,45.0,25.0,46,30.28,10.0,SSE,5.8,-,N/A,,Mostly Cloudy,160,2012-10-13 22:53:00
8:53 PM,46.0,26.1,46,30.23,10.0,SSW,12.7,20.7,N/A,,Partly Cloudy,200,2012-10-14 00:53:00
9:53 PM,44.6,26.6,49,30.17,10.0,South,13.8,25.3,N/A,,Overcast,190,2012-10-14 01:53:00
10:53 PM,45.0,28.0,52,30.22,10.0,South,8.1,17.3,0.00,,Overcast,190,2012-10-14 02:53:00
11:53 PM,42.1,34.0,73,30.13,10.0,South,12.7,20.7,0.01,Rain,Light Rain,170,2012-10-14 03:53:00